sat.trackr.live / text

‹ back to catalog

STARLINK-32670

NORAD 62210 · 2024-229U

PAYLOAD ACTIVE UNKNOWN

§ Identity

Operator
Country
US
Launch date
2024-12-04
Launch site
AFETR
Launch vehicle
Mass (kg)
RCS (m²)

Purposes: comms

External: N2YO · Heavens-Above · Gunter

§ Orbital elements

Epoch: 2026-09-21T15:45:59.323968Z

Period
94.27 min
Inclination
43.0028°
Eccentricity
0.0002021
Mean motion
15.27595673 rev/d
Perigee alt
481.6 km
Apogee alt
484.4 km
Semi-major
6,861.1 km
B*
5.1431e-4
RAAN
243.8547°
Arg perigee
270.8466°
Mean anomaly
89.2154°
Rev number
10,053

§ Raw data

STARLINK-326701 62210U 24229U   26264.65693662  .00013924  00000+0  51431-3 0  99982 62210  43.0028 243.8547 0002021 270.8466  89.2154 15.27595673100539

JSON: /api/v1/satellites/62210 · /tle

For live sub-satellite position, see the globe view (requires WebGL).

§ Visibility from observer

Set your observer location to see the next 7 days of passes ≥ 10°. The values pass through the URL so the page stays shareable.

No JS? Fill the form by hand. The geolocation button needs JavaScript.